Theta_e
340 341 344 351 357 358 363 353 355 353 349 349 349 352 353 353 359 363 347 347 346 347 345 344 342 342 342 342 341 339 339 337 336 335 333 332 331 331 330 330 331 331 331 331 332 333 335 336 338
345 347 347 349 359 363 360 355 351 350 347 345 346 349 352 355 350 348 347 347 347 347 345 344 342 341 339 337 332 332 334 334 331 330 330 329 329 328 329 329 330 331 331 330 329 328 324 324 327
346 349 350 352 357 358 361 346 342 341 342 344 344 348 352 352 347 346 347 348 347 347 346 343 340 339 336 335 334 333 333 332 330 328 328 328 327 326 327 328 329 329 330 330 330 329 328 325 320
345 344 348 358 355 353 353 341 340 340 341 343 346 352 347 346 346 347 346 346 346 346 345 339 336 334 334 333 333 331 330 328 327 326 324 326 326 326 327 328 328 328 328 328 329 329 329 329 325
346 349 355 355 351 347 345 342 340 339 340 342 347 354 352 347 347 346 346 346 346 345 342 337 334 331 331 331 330 329 324 321 321 323 323 323 324 326 326 328 327 327 327 327 327 328 328 327 327
347 344 352 351 344 343 343 342 341 339 339 341 346 350 352 347 347 346 345 344 344 343 340 335 332 330 327 327 324 322 320 319 318 319 318 318 316 315 315 321 324 324 326 326 327 326 324 327 327
345 346 343 341 340 342 341 341 342 340 341 340 343 353 350 347 347 346 344 343 343 342 338 334 333 331 323 321 320 320 320 319 318 318 317 318 321 320 321 322 319 316 321 325 325 325 322 317 316
344 344 343 339 343 341 338 340 340 343 342 336 339 346 353 347 346 345 344 343 343 341 337 334 333 330 328 321 318 320 320 319 319 318 319 322 324 323 322 324 321 318 313 315 322 321 315 315 315
343 345 343 342 341 341 340 339 339 338 338 340 339 341 347 347 345 344 341 342 340 342 338 336 334 331 330 329 321 319 320 323 327 326 325 324 325 327 326 324 322 321 321 317 318 319 320 319 320
346 350 344 342 340 342 340 344 343 342 342 341 343 344 344 346 345 342 342 342 342 340 336 335 334 333 332 332 329 330 331 331 331 330 328 328 327 326 326 325 323 323 323 322 322 322 322 321 323
345 349 342 344 341 340 342 341 342 342 346 344 347 348 345 344 343 341 339 340 339 335 335 334 332 332 332 329 328 330 332 332 331 329 328 329 328 328 327 327 325 325 325 324 324 323 324 324 322
345 342 343 342 341 341 341 341 342 340 345 343 343 347 345 345 344 342 340 339 338 336 335 333 331 331 331 328 328 329 329 329 329 329 329 329 329 329 328 327 327 325 324 324 323 323 322 322 322
343 343 340 340 339 340 341 339 339 341 342 345 342 348 347 346 344 343 341 339 338 336 336 335 331 332 330 330 329 330 330 330 330 329 328 328 328 328 328 328 327 326 325 324 323 323 322 323 322
340 344 340 339 339 339 339 339 339 341 341 346 344 345 348 347 345 344 342 340 337 337 336 336 333 331 330 329 330 331 331 331 329 330 329 328 329 329 330 329 329 327 325 325 323 324 323 323 322
339 339 337 340 341 340 341 341 341 340 340 344 346 345 346 347 345 344 343 340 337 337 337 336 335 331 331 329 332 331 331 331 329 329 329 329 329 330 329 330 327 327 325 324 325 323 324 325 323
336 341 345 340 340 342 342 342 342 341 340 346 344 345 345 347 345 343 342 339 337 336 337 337 335 332 332 332 332 332 332 331 330 329 329 330 329 329 329 327 328 325 325 325 324 325 323 322 322
338 340 341 342 341 340 342 341 344 345 342 343 344 344 345 345 345 343 342 340 339 336 338 338 335 333 333 332 332 333 334 333 331 329 329 327 329 328 329 327 326 326 325 324 326 325 324 325 323
336 334 337 339 340 338 336 336 337 339 347 346 344 341 344 345 346 344 342 340 339 338 338 337 335 334 333 332 334 334 333 333 332 330 329 329 327 324 323 321 322 324 325 325 324 325 325 324 323
335 330 330 332 332 337 337 335 338 342 344 348 342 342 345 344 345 343 341 341 339 339 338 336 335 334 334 334 334 334 333 332 331 328 325 324 323 322 320 319 320 319 321 322 323 323 324 324 324
333 331 330 332 331 332 335 338 339 343 339 340 340 335 343 342 344 344 343 341 339 339 338 336 335 335 336 335 334 334 334 329 324 322 321 322 323 322 320 319 318 319 319 317 318 319 322 322 322
333 333 332 332 330 330 335 339 345 339 336 335 334 339 336 344 345 344 343 341 339 339 336 335 335 335 337 336 334 334 332 330 328 326 322 323 322 321 320 319 320 319 318 318 317 318 319 321 321
335 333 332 333 331 331 335 340 345 341 344 342 339 338 337 344 347 343 342 341 339 336 336 335 336 336 327 326 330 331 329 323 320 319 319 321 321 321 322 321 320 319 318 318 316 319 318 318 320
333 332 331 332 336 338 338 340 346 344 343 344 342 339 337 341 340 343 341 341 337 336 326 336 334 327 330 325 328 323 325 323 319 322 322 322 319 321 322 318 319 320 319 319 317 318 318 317 319
331 330 330 334 335 338 340 342 343 340 338 340 334 333 336 337 344 342 342 343 335 330 331 333 332 334 332 330 329 325 322 324 323 325 324 323 324 321 320 320 320 319 319 318 318 315 317 318 319
332 333 333 337 339 342 343 341 345 340 334 334 334 333 336 337 337 343 342 343 342 336 336 334 326 331 325 322 321 325 325 326 326 325 324 322 322 323 321 320 319 319 319 317 317 317 316 316 317
332 334 335 339 348 339 336 347 346 338 334 333 334 335 335 338 335 334 336 335 332 330 328 328 326 321 320 317 316 321 326 325 324 324 322 321 320 319 318 317 317 316 316 316 316 316 316 316 317
334 337 336 340 340 342 341 340 338 336 337 334 333 336 338 334 331 334 332 330 329 328 325 322 321 321 320 318 322 325 322 322 321 319 317 316 316 316 315 314 313 314 316 316 315 315 315 316 316
336 335 338 338 342 343 344 342 344 339 336 335 334 335 336 338 336 334 333 330 327 325 324 323 323 323 323 323 321 321 321 318 317 316 316 315 315 314 314 314 314 313 312 314 315 315 315 316 317
339 339 342 341 343 346 344 346 337 336 335 334 332 333 334 334 334 332 330 325 323 323 322 321 322 320 321 319 318 317 316 315 314 314 313 313 313 312 313 313 313 313 313 312 312 312 315 316 317
335 338 337 347 339 338 340 346 338 335 332 331 329 330 330 330 329 327 325 324 322 321 320 320 320 320 319 316 315 313 313 312 311 313 310 309 309 308 308 309 310 310 311 310 311 313 315 315 317
Wind_Speed
9 8 7 10 1 2 7 1 6 12 10 12 11 10 16 15 8 8 15 21 24 20 15 14 15 13 14 13 13 11 10 11 11 11 10 10 10 10 10 10 9 9 9 8 7 5 5 4 3
7 12 13 4 3 3 2 18 12 8 8 10 7 9 12 15 14 15 13 18 19 18 17 14 14 14 14 12 11 11 10 10 9 9 10 10 10 10 10 10 10 10 9 9 8 6 5 4 4
13 13 3 5 3 3 4 10 12 9 6 5 8 13 8 11 14 13 20 20 19 16 15 14 14 14 13 12 10 10 9 8 8 8 8 8 8 7 7 7 7 7 7 7 7 6 6 5 5
5 8 2 0 9 7 7 9 9 14 9 3 17 13 9 10 8 14 21 19 18 17 15 15 14 13 12 11 10 9 9 8 7 7 6 6 6 5 6 6 6 6 5 5 6 6 5 4 5
25 4 4 10 10 11 14 4 9 7 5 9 13 11 9 10 16 21 21 17 17 20 16 14 13 12 12 11 10 9 9 9 8 7 6 5 5 4 4 4 6 8 6 6 6 4 5 4 5
6 6 8 6 7 13 6 7 8 8 8 3 16 13 7 16 20 19 18 19 17 18 17 15 13 11 12 11 10 9 9 9 7 7 6 5 5 4 4 4 6 8 7 7 5 5 6 4 4
10 9 8 5 7 10 5 7 10 3 11 8 7 7 10 17 19 19 18 18 15 18 19 17 13 11 11 11 9 8 7 7 7 6 5 5 6 6 6 4 8 10 6 5 5 6 7 8 9
8 6 15 1 9 11 8 2 9 8 9 8 4 4 10 15 21 20 22 21 20 19 23 20 18 14 11 11 9 7 6 5 5 5 5 4 3 2 2 4 9 12 8 7 7 9 10 11 11
17 5 8 7 6 10 9 10 3 3 8 4 6 8 20 25 24 23 17 19 18 23 25 22 20 18 18 15 11 8 7 6 5 3 2 3 4 4 2 3 7 9 11 5 4 6 10 8 9
7 8 2 15 5 12 9 11 9 6 7 9 9 12 20 24 23 22 25 22 26 26 19 24 22 12 17 18 7 8 10 7 6 7 1 7 1 4 6 9 11 4 7 6 5 9 10 11 14
10 11 7 23 8 4 3 6 11 9 10 9 17 17 19 23 21 19 18 20 21 17 13 18 14 12 13 12 4 14 14 13 12 9 6 4 5 6 8 8 7 4 10 8 6 14 11 8 11
7 15 12 9 6 4 8 5 12 7 9 9 13 19 18 19 18 20 19 17 16 19 17 12 15 12 10 13 8 8 5 6 8 10 7 6 7 4 6 9 6 10 10 8 11 9 9 11 10
12 15 2 8 6 7 8 6 5 8 12 10 10 19 18 17 20 21 17 13 21 21 19 16 17 18 14 6 7 5 3 3 2 3 4 7 7 8 10 11 10 13 14 12 11 8 9 10 12
12 24 12 5 4 5 7 11 10 10 1 11 9 14 17 17 19 20 18 15 16 23 22 18 16 17 13 11 9 7 7 9 10 8 7 7 7 9 8 14 15 17 16 12 11 10 16 14 13
12 12 14 13 22 9 6 11 6 19 31 11 9 11 14 17 19 18 18 15 15 22 20 19 14 16 14 14 9 7 10 10 12 13 12 14 11 12 10 13 14 18 21 16 14 16 17 17 16
11 17 11 7 5 24 4 3 14 25 31 9 11 12 11 13 17 19 19 17 17 16 23 23 18 17 16 13 11 10 11 5 9 8 10 9 12 8 14 11 14 16 14 14 17 15 17 19 21
7 7 12 17 27 20 11 11 16 32 20 11 9 11 10 12 14 16 20 20 19 21 20 20 16 17 18 14 12 11 9 12 15 13 10 10 8 8 8 9 15 14 15 17 18 19 19 15 21
16 17 9 7 12 10 12 12 12 9 11 9 7 7 11 13 15 21 23 23 21 19 17 17 17 15 15 15 15 11 15 15 14 14 10 3 2 5 6 12 17 12 10 18 19 20 19 22 22
25 17 17 13 9 3 20 12 10 18 17 4 18 24 9 11 15 25 23 21 22 18 15 15 18 22 19 17 12 17 18 19 16 8 6 6 5 5 6 8 13 16 14 16 18 19 20 22 22
24 18 17 12 13 9 15 17 7 21 13 13 24 21 9 10 12 19 22 23 20 18 17 17 16 19 22 19 18 9 4 6 9 13 14 7 4 6 6 8 9 10 12 18 23 24 21 20 20
19 19 12 17 18 17 12 9 15 18 19 22 23 18 22 11 7 16 18 20 19 23 23 19 24 23 12 19 10 8 6 12 15 14 11 12 9 7 10 9 9 12 12 12 19 25 23 21 19
22 15 16 16 21 13 9 6 8 11 7 6 13 20 19 8 16 13 15 16 26 22 14 18 23 5 7 25 5 12 7 8 10 10 12 7 10 12 10 11 13 16 12 15 15 21 26 23 19
21 19 20 16 14 15 16 6 1 14 10 11 14 15 20 5 0 9 9 13 25 25 21 21 13 2 11 15 15 8 9 8 9 11 13 13 16 12 9 18 16 12 14 15 20 21 24 24 20
20 21 15 13 7 6 10 5 3 4 7 2 9 10 6 12 5 12 15 15 20 25 8 12 7 3 6 14 12 12 10 12 9 12 15 22 20 17 15 4 8 9 18 19 20 21 21 22 21
23 16 7 11 6 6 13 11 9 13 9 8 6 8 10 10 23 9 7 12 11 12 8 12 9 7 1 5 6 12 11 10 11 12 13 16 20 19 17 16 15 14 16 21 23 23 25 23 23
18 13 9 12 4 8 15 2 1 9 8 7 7 9 10 15 20 13 19 21 25 21 18 20 11 6 6 2 12 15 10 12 15 13 12 13 17 19 21 23 22 25 25 25 25 23 24 23 23
16 9 10 3 7 5 6 5 3 5 10 10 11 7 12 12 15 6 22 19 14 17 17 13 6 0 5 7 7 7 8 10 13 15 17 18 20 20 24 26 29 28 27 24 24 24 23 24 24
2 5 8 3 4 7 5 11 4 2 6 10 12 11 8 15 16 15 16 16 14 9 5 3 6 7 7 7 7 11 13 15 16 17 18 19 21 22 22 23 25 26 28 26 22 24 24 25 21
8 5 9 8 4 7 4 4 7 9 10 10 13 13 13 16 13 9 13 13 7 3 3 7 6 11 12 15 15 16 16 18 19 20 21 22 23 24 25 25 24 24 23 21 27 27 23 22 22
2 10 15 12 2 6 7 2 8 11 10 8 10 9 12 11 12 11 11 6 9 8 12 11 11 14 15 17 19 18 17 18 19 16 18 25 26 27 28 28 25 24 23 28 28 28 21 23 22
Wind_Direction
228 221 233 250 220 34 153 234 259 40 59 76 65 75 84 49 17 113 115 126 128 129 133 125 117 115 108 109 111 111 101 93 89 85 81 74 73 71 68 64 63 55 50 50 46 32 25 19 2
237 238 236 304 20 337 95 191 128 94 87 99 117 108 84 73 88 126 112 135 130 133 135 131 132 122 117 114 110 105 98 91 85 79 74 71 70 69 66 61 56 54 49 45 39 29 11 351 332
250 273 36 346 98 229 260 76 88 102 123 165 118 84 56 97 107 139 131 135 134 137 138 143 135 128 121 119 115 110 103 94 85 76 73 72 67 63 59 54 51 41 40 36 31 26 23 2 336
239 11 240 271 148 214 220 100 144 127 105 323 106 93 89 100 110 138 141 142 146 146 144 143 141 136 128 125 119 112 104 95 86 82 78 77 75 60 49 40 34 18 11 11 8 359 355 352 345
228 200 221 181 189 158 211 57 74 91 80 89 85 93 99 103 123 141 148 152 146 146 143 145 146 138 131 127 122 119 113 104 96 86 80 79 72 55 31 24 11 7 1 354 350 4 355 335 329
271 154 259 193 79 113 103 99 116 85 84 140 108 114 110 139 143 150 157 156 154 157 150 149 150 146 139 135 132 126 117 107 102 100 88 81 63 48 39 39 23 2 359 351 5 357 355 4 329
297 274 231 160 127 122 122 8 89 78 114 67 96 112 135 155 159 155 168 153 174 165 151 154 156 158 152 145 141 136 130 121 116 109 100 100 84 87 67 54 15 349 326 325 324 321 321 317 313
244 300 293 175 125 102 85 153 82 57 64 100 352 81 158 160 161 163 172 177 186 169 171 163 164 166 168 158 152 153 148 135 118 106 100 146 163 149 133 35 357 354 339 304 299 302 311 306 296
224 332 52 352 78 125 166 118 124 90 135 101 87 68 143 156 166 167 163 181 185 190 187 166 173 177 179 172 152 165 168 164 158 142 43 286 275 268 208 259 314 353 354 354 0 351 347 325 307
87 328 333 279 123 136 149 153 158 173 143 145 134 110 138 158 177 180 176 187 202 195 176 161 156 163 166 170 170 188 196 193 197 206 225 290 278 276 298 266 262 294 334 321 309 318 322 310 308
149 191 237 315 50 349 111 232 165 187 184 185 177 151 159 167 182 187 195 189 181 162 168 152 155 163 190 169 178 202 193 198 192 191 207 261 289 232 295 301 250 299 305 311 295 292 284 301 325
173 184 233 195 92 274 262 183 194 202 155 124 118 152 166 177 185 192 202 198 178 160 167 169 165 181 213 180 200 169 195 168 242 176 193 231 279 294 317 302 315 299 293 292 296 288 310 317 301
45 316 216 126 221 233 282 260 272 219 137 139 150 156 175 185 188 194 207 211 166 162 169 198 183 184 192 192 184 202 256 278 168 272 221 219 246 290 294 294 303 284 275 270 291 297 320 315 300
163 222 265 244 238 228 248 266 214 6 240 160 185 184 179 191 195 194 200 200 167 161 171 195 195 172 166 186 201 201 225 229 253 233 249 244 252 270 270 302 298 300 304 291 290 306 302 282 285
219 240 255 18 359 244 254 265 34 38 316 165 207 214 194 186 195 194 191 190 186 161 172 197 200 177 180 200 206 224 252 249 218 216 233 240 242 270 278 279 282 292 287 280 288 283 278 274 275
267 15 355 27 312 274 232 240 130 148 237 193 229 207 212 183 194 200 183 187 187 182 183 191 201 188 193 205 210 222 251 276 283 285 279 218 237 269 269 284 283 301 309 295 287 277 274 280 289
8 244 208 231 196 238 213 286 184 191 208 206 214 224 206 201 188 188 184 183 187 198 193 175 195 187 193 204 220 229 253 241 242 255 262 266 262 265 270 291 295 298 296 292 294 293 287 275 285
260 291 215 198 204 240 262 265 275 273 200 212 203 261 209 205 186 179 182 184 193 201 179 176 189 213 197 203 213 238 240 251 266 258 272 210 247 319 348 334 317 306 304 299 293 285 284 286 292
279 304 306 348 338 159 296 291 328 11 357 319 43 327 261 229 187 178 183 187 187 189 173 185 198 206 207 202 214 234 235 238 241 265 175 231 268 302 331 311 318 339 329 320 310 301 296 294 287
263 279 284 331 321 305 271 279 309 44 26 54 38 266 287 239 187 176 173 179 178 171 176 194 214 225 212 204 204 247 302 281 290 274 277 265 218 228 255 262 286 292 318 319 308 304 293 283 283
297 309 319 312 298 293 325 316 32 14 33 30 16 279 278 272 259 164 173 177 169 169 167 201 221 230 260 220 197 214 252 281 271 255 232 195 205 258 257 258 254 264 274 291 305 308 306 301 291
297 309 306 305 293 303 5 325 71 37 30 81 229 252 260 7 290 167 180 148 94 101 179 234 227 230 24 33 243 248 226 272 245 274 279 220 262 277 246 263 263 266 272 284 297 297 296 298 291
284 283 290 312 3 10 358 352 65 54 352 276 253 260 273 189 353 116 114 107 119 165 193 218 233 267 315 127 211 253 244 297 350 345 338 325 304 299 269 295 269 244 271 287 292 296 294 290 288
255 268 292 323 324 307 32 267 71 110 208 209 29 16 26 5 76 113 97 105 150 169 215 222 242 269 196 183 207 248 268 293 308 285 310 305 303 299 278 292 235 258 276 285 289 294 289 285 282
293 286 290 311 338 320 214 238 30 336 26 9 40 5 37 35 32 18 129 166 138 132 190 164 122 112 204 80 282 312 274 248 274 298 300 309 311 320 330 326 323 299 295 300 295 287 284 283 281
281 274 262 268 213 229 282 163 248 274 350 4 42 62 33 42 67 338 29 93 91 109 100 104 130 55 18 64 301 298 324 330 324 341 344 328 324 320 321 319 315 309 303 295 290 289 286 283 281
300 265 298 197 248 307 232 111 25 304 284 10 8 59 86 92 123 159 87 85 80 92 86 80 94 298 297 282 300 328 9 358 342 338 336 327 314 316 314 314 312 304 296 294 292 290 286 283 281
211 0 346 42 4 333 289 113 162 117 33 14 4 48 57 107 114 102 100 99 85 76 68 55 4 340 324 338 17 4 2 354 337 342 339 334 325 322 314 306 298 297 295 293 293 296 294 291 282
15 22 14 352 136 213 286 49 346 26 42 8 14 27 41 94 104 104 108 87 62 94 6 33 43 2 25 33 19 5 0 5 359 352 342 335 328 322 312 309 309 307 299 303 300 296 289 286 286
331 186 184 241 298 271 263 146 324 346 39 24 18 48 36 22 38 60 69 34 18 28 32 17 30 22 3 11 5 3 7 1 342 340 333 325 318 315 314 315 319 312 302 293 295 298 292 295 284